Hourly Data Report for June 09, 2018

OTTAWA INTL A
ONTARIO
Current Station Operator: NAVCAN

45°19'00.000" N
75°40'00.000" W
114.90 m
6106001
71628
YOW

Download Data

Hourly Data (June 2018)
Hourly Data Report for June 9, 2018
TIME
LST
Temp Definition
°C
Dew Point Definition
°C
Rel Hum Definition
%
Precip. Amount Definition
mm

Wind Dir Definition
10's deg

Wind Spd Definition
km/h
Visibility Definition
km
Stn Press Definition
kPa
Hmdx Definition


Wind Chill Definition


Weather Definition


00:00
01:00 12.2 9.2 82   16 6 24.1 100.78     Mainly Clear
02:00 11.9 8.8 81   19 9 24.1 100.75     LegendNANA
03:00 10.7 8.8 88   36 1 24.1 100.71     LegendNANA
04:00 8.8 7.7 93   23 5 24.1 100.72     Mainly Clear
05:00 11.1 9.5 90   31 14 24.1 100.79     LegendNANA
06:00 14.1 10.9 81   29 8 24.1 100.82     LegendNANA
07:00 16.1 10.2 68   32 10 24.1 100.85     Mostly Cloudy
08:00 17.8 9.3 57   36 18 24.1 100.85     LegendNANA
09:00 19.3 8.0 48   1 17 24.1 100.84     LegendNANA
10:00 19.6 8.2 47   36 7 24.1 100.83     Mostly Cloudy
11:00 20.5 8.3 45   1 13 24.1 100.79     LegendNANA
12:00 21.4 6.5 38   32 14 24.1 100.78     LegendNANA
13:00 22.2 6.5 36   33 18 24.1 100.72     Mostly Cloudy
14:00 23.2 6.3 33   27 16 24.1 100.67     LegendNANA
15:00 23.4 7.2 35   32 28 24.1 100.60     LegendNANA
16:00 23.2 5.3 31   28 25 24.1 100.55     Mostly Cloudy
17:00 23.1 3.9 28   33 17 24.1 100.53     LegendNANA
18:00 22.1 3.0 28   34 20 24.1 100.52     LegendNANA
19:00 20.4 2.0 29   2 13 24.1 100.53     Mainly Clear
20:00 18.5 1.2 31   1 12 24.1 100.59     LegendNANA
21:00 15.1 3.0 44   3 9 24.1 100.67     LegendNANA
22:00 13.8 3.9 51   4 11 24.1 100.66     Mainly Clear
23:00 12.2 3.9 57   14 3 24.1 100.67     LegendNANA

Notes on Data Quality.

Legend

  • E = Estimated
  • M = Missing
  • NA = Not Available*
  • [empty] = Indicates an unobserved value
Date modified: